Location: ???????
(55.3754°N, 39.3545°E)
Time: 08:07:21
(UTC+00:00)

Okean 1-7 Rocket - Pass Details

Date: 14 April 2026
Orbit: 610 x 643 km, 82.5° (Epoch: 14 May)

Event Time Altitude Azimuth Distance (km) Brightness Sun altitude
Rises 22:58:07 0° 346° (NNW) 2,891 7.8 -22.0°
Reaches altitude 10° 23:00:21 10° 345° (NNW) 1,980 6.8 -21.8°
Maximum altitude 23:04:43 72° 261° (W) 650 3.4 -21.5°
Enters shadow 23:05:11 64° 216° (SW) 679 3.4 -21.5°
